Wind_Speed
35 31 33 33 33 34 36 39 37 38 40 40 38 34 34 34 34 36 37 36 34 35 36 32 32 32 31 30 31 32 32 32
43 37 34 35 34 33 38 40 39 41 39 38 37 34 36 36 35 37 39 39 39 39 37 35 35 34 33 33 33 33 33 32
47 44 41 36 36 35 35 39 42 43 42 39 41 40 40 39 40 41 39 41 41 42 39 37 37 36 35 35 34 34 34 33
49 47 45 41 39 40 40 37 41 42 42 41 41 41 41 43 40 39 40 40 38 37 37 39 40 39 39 39 38 37 37 37
49 48 48 47 44 41 42 43 43 41 42 41 40 39 39 35 35 38 40 39 37 38 39 40 41 41 42 39 39 39 39 38
50 50 51 50 48 46 45 44 45 45 46 46 45 45 43 40 40 42 45 44 44 44 45 44 45 43 42 41 42 41 41 42
53 55 52 53 52 50 50 49 48 48 48 48 48 47 47 47 45 43 43 46 46 47 49 48 47 47 46 44 44 45 46 45
55 52 52 56 55 55 53 54 54 52 51 51 50 50 51 51 50 48 47 47 48 50 49 50 49 48 49 48 49 48 49 48
55 53 55 56 55 62 58 56 55 56 56 54 52 52 53 53 53 51 50 51 51 52 54 54 54 54 55 54 54 53 54 53
59 56 56 59 56 57 61 60 56 57 57 58 57 57 55 55 54 53 53 52 55 56 57 58 57 57 57 59 58 58 58 59
65 56 51 60 58 54 55 55 55 56 55 55 55 54 56 56 58 58 57 56 57 57 58 60 60 59 61 62 62 63 64 64
63 64 60 49 56 60 57 57 60 61 62 63 63 63 60 60 60 59 59 58 59 61 59 60 62 60 62 64 62 62 70 70
69 68 67 67 66 67 65 61 59 60 62 64 66 63 64 64 64 65 66 66 64 64 64 64 64 63 63 63 67 71 68 72
65 71 65 65 69 68 68 61 61 59 60 58 58 57 57 58 59 58 59 60 62 65 67 69 68 66 69 70 72 71 74 77
41 48 53 57 58 72 72 63 62 62 60 59 52 50 53 51 48 51 55 57 56 59 62 66 68 72 72 71 72 75 76 79
52 44 42 37 36 42 59 63 59 61 62 59 64 64 47 48 57 52 53 56 59 59 61 62 62 63 67 70 72 74 75 76
68 64 63 60 57 55 51 51 57 58 55 52 55 56 54 58 59 56 59 60 60 63 62 63 68 69 67 62 61 66 71 81
64 66 69 69 70 69 66 58 55 54 52 51 53 57 61 63 65 63 58 57 56 64 66 61 62 56 53 55 59 60 66 70
54 53 57 69 76 76 69 61 67 66 55 54 56 59 67 69 66 68 67 61 55 56 57 57 62 61 62 64 65 63 68 71
Wind_Direction
253 240 235 238 239 237 239 236 235 236 238 240 244 247 247 247 243 244 244 242 241 242 245 245 244 246 244 240 241 242 243 246
254 249 240 237 237 235 235 235 234 236 241 246 248 248 248 249 247 243 245 244 239 238 241 243 246 245 246 244 242 242 245 248
252 252 253 242 239 234 232 233 233 239 241 242 247 244 244 242 241 240 241 242 241 241 241 242 245 248 250 253 252 250 250 251
253 255 255 253 242 239 237 231 231 236 238 237 240 245 243 239 237 240 241 242 242 244 244 245 246 246 248 249 251 252 254 255
251 255 254 254 250 242 239 236 233 233 237 242 246 246 247 248 247 244 243 241 241 240 241 243 246 247 249 250 250 251 253 258
245 249 255 255 251 248 242 239 237 236 236 238 242 244 242 239 242 240 240 239 237 236 238 240 242 244 246 246 248 251 254 255
248 250 248 250 252 247 242 240 239 238 236 238 239 241 243 245 240 242 246 246 245 241 241 242 243 246 247 247 249 249 252 252
252 245 246 246 248 250 248 244 241 240 240 238 239 240 240 243 244 244 243 245 246 247 246 246 247 249 251 252 254 253 255 255
255 252 248 244 245 245 245 246 246 246 243 242 240 240 241 242 242 243 246 248 249 247 247 248 248 247 247 249 251 254 255 258
259 248 246 242 239 239 240 242 244 246 246 246 245 245 244 243 245 246 246 246 249 252 252 252 252 251 252 253 253 253 255 257
255 251 239 234 229 229 231 236 240 243 246 248 249 245 245 245 245 246 246 247 248 251 252 253 254 255 256 257 258 259 259 260
257 255 247 241 232 229 229 238 245 246 248 248 248 248 250 252 252 247 245 247 249 250 249 250 251 252 255 258 261 260 263 260
260 260 255 247 242 238 243 249 250 246 244 248 249 250 252 251 251 252 253 254 253 252 250 249 248 250 250 249 251 258 261 255
250 257 252 252 256 251 247 247 250 246 241 241 243 247 249 252 253 253 254 254 254 254 252 252 251 250 251 251 254 255 259 259
222 226 229 235 235 250 253 244 247 245 244 240 244 245 247 250 253 258 262 263 262 260 258 254 253 253 253 254 255 258 261 264
262 244 243 243 241 241 238 241 242 243 247 249 251 249 253 257 254 258 260 264 263 266 261 256 250 258 256 253 254 255 258 258
273 273 269 260 259 259 265 247 233 240 239 246 247 246 249 263 267 264 268 267 264 262 262 258 256 256 257 254 253 254 257 258
281 279 275 274 267 271 271 271 258 252 252 254 255 262 264 264 269 269 268 269 264 259 254 255 259 253 248 252 255 260 257 262
273 273 274 275 276 274 278 278 275 276 270 264 265 265 267 265 263 269 271 271 260 254 254 256 256 253 252 253 258 261 263 262
Height
5725 5727 5731 5734 5736 5739 5741 5744 5749 5751 5753 5755 5758 5761 5765 5768 5771 5773 5775 5778 5782 5785 5786 5789 5792 5795 5798 5800 5802 5803 5805 5807
5715 5718 5723 5726 5729 5731 5734 5737 5742 5741 5745 5748 5752 5756 5759 5762 5765 5767 5769 5771 5774 5776 5779 5783 5786 5788 5791 5793 5794 5796 5799 5801
5705 5709 5713 5717 5720 5723 5726 5730 5732 5734 5737 5742 5743 5747 5750 5753 5755 5758 5762 5764 5767 5769 5773 5776 5778 5781 5785 5788 5790 5791 5792 5795
5698 5700 5703 5707 5711 5713 5716 5721 5723 5726 5729 5730 5733 5735 5739 5742 5747 5752 5756 5758 5762 5764 5767 5769 5770 5773 5776 5779 5783 5785 5786 5787
5691 5692 5692 5696 5701 5704 5706 5710 5713 5717 5719 5722 5725 5727 5730 5737 5742 5745 5746 5749 5753 5755 5757 5759 5762 5765 5768 5773 5774 5777 5778 5780
5678 5682 5684 5685 5689 5694 5697 5699 5702 5706 5708 5712 5715 5718 5722 5726 5729 5732 5734 5738 5742 5745 5746 5749 5751 5755 5760 5762 5764 5768 5770 5771
5666 5669 5672 5676 5678 5680 5685 5687 5689 5694 5697 5700 5704 5707 5711 5715 5718 5721 5725 5729 5733 5735 5737 5740 5743 5745 5748 5752 5755 5756 5758 5762
5650 5654 5659 5663 5667 5669 5672 5676 5678 5680 5684 5688 5691 5695 5699 5702 5706 5710 5713 5717 5721 5725 5729 5732 5735 5737 5738 5741 5742 5745 5747 5750
5633 5638 5641 5646 5652 5656 5658 5662 5667 5672 5672 5676 5680 5683 5686 5690 5694 5698 5701 5706 5710 5713 5716 5719 5723 5725 5726 5728 5730 5733 5735 5737
5612 5620 5625 5628 5633 5639 5643 5646 5650 5655 5660 5664 5668 5673 5676 5679 5682 5686 5689 5693 5696 5700 5704 5707 5710 5713 5716 5717 5720 5722 5724 5726
5596 5602 5607 5610 5616 5622 5627 5632 5636 5641 5645 5650 5654 5657 5663 5667 5670 5674 5677 5681 5685 5689 5692 5695 5696 5699 5702 5704 5708 5709 5709 5710
5582 5587 5595 5597 5601 5605 5612 5618 5622 5625 5630 5634 5639 5644 5648 5652 5657 5661 5664 5667 5672 5676 5680 5683 5685 5687 5689 5689 5692 5693 5692 5692
5563 5568 5575 5581 5586 5589 5594 5600 5605 5610 5615 5619 5623 5626 5631 5636 5641 5645 5649 5654 5656 5661 5665 5669 5672 5674 5676 5678 5680 5680 5680 5680
5546 5549 5554 5561 5566 5572 5576 5581 5588 5594 5599 5604 5607 5611 5615 5619 5623 5628 5632 5636 5640 5644 5647 5652 5656 5659 5662 5665 5665 5664 5666 5668
5526 5531 5535 5541 5546 5551 5559 5565 5570 5577 5583 5588 5593 5597 5602 5606 5609 5612 5616 5619 5624 5629 5631 5635 5639 5641 5645 5649 5650 5651 5652 5652
5513 5516 5522 5527 5533 5539 5541 5546 5553 5561 5565 5570 5575 5579 5585 5591 5596 5599 5602 5605 5608 5612 5615 5619 5621 5623 5628 5631 5633 5634 5635 5637
5496 5499 5504 5512 5516 5520 5525 5529 5533 5543 5550 5554 5559 5562 5567 5573 5580 5584 5587 5590 5592 5595 5598 5600 5603 5606 5611 5613 5614 5616 5619 5617
5476 5482 5486 5491 5495 5499 5504 5510 5516 5523 5529 5534 5540 5545 5550 5554 5560 5567 5570 5573 5576 5580 5583 5582 5586 5590 5592 5596 5597 5598 5598 5598
5465 5467 5469 5474 5478 5482 5485 5489 5496 5503 5509 5513 5517 5524 5531 5537 5541 5546 5553 5556 5559 5565 5567 5569 5571 5575 5577 5578 5578 5582 5581 5583